CW8164 Weather Reports


Display with metric or nautical units.
time (UTC)temp
F
wind
direction
speed
MPH
gust
MPH
rain 1hr
in
rain 24hr
in
rain mn
in
humidity
%
barometer
mb
20260508055903 49 29 0.0 0.0 0.00 0.00 0.00 81 1016.4
20260508055403 50 29 0.0 0.0 0.00 0.00 0.00 81 1016.3
20260508054903 50 29 0.0 0.0 0.00 0.00 0.00 80 1016.4
20260508054402 50 29 0.0 0.0 0.00 0.00 0.00 80 1016.5
20260508053902 50 29 0.0 0.0 0.00 0.00 0.00 81 1016.5
20260508053402 50 29 0.0 0.0 0.00 0.00 0.00 81 1016.4
20260508052902 51 29 0.0 0.0 0.00 0.00 0.00 80 1016.4
20260508052403 51 29 0.0 0.0 0.00 0.00 0.00 80 1016.4
20260508051902 51 29 0.0 0.0 0.00 0.00 0.00 79 1016.4
20260508051403 51 29 0.0 0.0 0.00 0.00 0.00 79 1016.4
20260508050903 52 29 0.0 0.0 0.00 0.00 0.00 78 1016.4
20260508050403 52 29 0.0 0.0 0.00 0.00 0.00 78 1016.4
20260508045903 52 29 0.0 0.0 0.00 0.00 0.00 78 1016.4
20260508044902 53 29 0.0 0.0 0.00 0.00 0.00 77 1016.3
20260508044402 53 29 0.0 0.0 0.00 0.00 0.00 77 1016.3
20260508043902 53 29 0.0 0.0 0.00 0.00 0.00 75 1016.3
20260508042902 54 29 0.0 0.0 0.00 0.00 0.00 75 1016.2
20260508042402 54 29 0.0 0.0 0.00 0.00 0.00 74 1016.2
20260508041903 55 29 0.0 0.0 0.00 0.00 0.00 74 1016.2
20260508041403 55 29 0.0 0.0 0.00 0.00 0.00 72 1016.2
20260508040902 56 29 0.0 0.0 0.00 0.00 0.00 72 1016.2
20260508040402 56 29 0.0 0.0 0.00 0.00 0.00 70 1016.1
20260508034903 58 29 0.0 0.0 0.00 0.00 0.00 69 1016.0
20260508034403 58 29 0.0 0.0 0.00 0.00 0.00 67 1015.9
20260508033902 59 29 0.0 0.0 0.00 0.00 0.00 67 1015.8
20260508033402 60 29 0.0 0.0 0.00 0.00 0.00 65 1015.7
20260508032902 60 29 0.0 0.0 0.00 0.00 0.00 63 1015.6
20260508031902 62 29 0.0 0.0 0.00 0.00 0.00 65 1015.6
20260508031403 62 29 0.0 0.0 0.00 0.00 0.00 65 1015.6
20260508030902 62 29 0.0 0.0 0.00 0.00 0.00 64 1015.5
20260508025903 63 29 0.0 0.0 0.00 0.00 0.00 58 1015.6
20260508024903 64 29 0.0 0.0 0.00 0.00 0.00 57 1015.6
20260508024402 65 29 0.0 0.0 0.00 0.00 0.00 55 1015.8
20260508023903 65 29 0.0 0.0 0.00 0.00 0.00 54 1015.7
20260508022902 66 29 0.0 0.0 0.00 0.00 0.00 47 1015.6
20260508022403 67 29 0.0 0.0 0.00 0.00 0.00 45 1015.7
20260508021402 67 38 0.0 1.0 0.00 0.00 0.00 47 1015.7
20260508020903 68 38 0.0 1.0 0.00 0.00 0.00 43 1015.8
20260508020403 68 355 0.0 0.0 0.00 0.00 0.00 43 1015.9
20260508015903 69 355 0.0 2.0 0.00 0.00 0.00 43 1015.9
20260508014903 70 29 1.0 3.0 0.00 0.00 0.00 38 1015.9
20260508014402 70 192 0.0 0.0 0.00 0.00 0.00 39 1015.9
20260508013903 70 195 0.0 0.0 0.00 0.00 0.00 42 1015.9
20260508013403 71 112 0.0 0.0 0.00 0.00 0.00 41 1015.9
20260508012902 71 218 0.0 2.0 0.00 0.00 0.00 38 1016.0
20260508011903 70 348 0.0 0.0 0.00 0.00 0.00 38 1016.0
20260508011403 71 24 0.0 0.0 0.00 0.00 0.00 35 1016.1
20260508010902 71 355 0.0 0.0 0.00 0.00 0.00 39 1016.2
20260508010403 71 251 0.0 0.0 0.00 0.00 0.00 36 1016.1
20260508005904 71 222 0.0 1.0 0.00 0.00 0.00 38 1016.2
20260508004403 70 43 1.0 5.0 0.00 0.00 0.00 33 1016.4
20260508003902 70 38 0.0 5.0 0.00 0.00 0.00 33 1016.4
20260508003402 70 24 0.0 5.0 0.00 0.00 0.00 35 1016.5
20260508002902 70 47 1.0 5.0 0.00 0.00 0.00 36 1016.5
20260508002402 70 165 1.0 5.0 0.00 0.00 0.00 32 1016.5
20260508001403 70 349 0.0 3.0 0.00 0.00 0.00 37 1016.6
20260508000404 69 277 1.0 7.0 0.00 0.00 0.00 34 1016.7
20260507235902 69 39 2.0 7.0 0.00 0.00 0.00 38 1016.7
20260507235402 69 258 2.0 7.0 0.00 0.00 0.00 39 1016.7
20260507234903 69 34 1.0 7.0 0.00 0.00 0.00 37 1016.8
20260507234403 69 261 2.0 7.0 0.00 0.00 0.00 36 1016.9
20260507233903 69 54 2.0 7.0 0.00 0.00 0.00 38 1016.9
20260507233403 69 41 1.0 6.0 0.00 0.00 0.00 38 1017.0
20260507232902 69 14 3.0 6.0 0.00 0.00 0.00 39 1017.0
20260507232402 69 44 2.0 6.0 0.00 0.00 0.00 38 1017.1
20260507230903 69 285 2.0 7.0 0.00 0.00 0.00 39 1017.3
20260507230403 69 206 2.0 7.0 0.00 0.00 0.00 40 1017.3
20260507225903 69 54 1.0 5.0 0.00 0.00 0.00 42 1017.4
20260507225403 69 244 2.0 6.0 0.00 0.00 0.00 46 1017.4
20260507224903 69 69 0.0 6.0 0.00 0.00 0.00 43 1017.4
20260507224403 69 204 1.0 6.0 0.00 0.00 0.00 43 1017.4
20260507223903 69 247 2.0 6.0 0.00 0.00 0.00 43 1017.5
20260507222902 68 29 1.0 8.0 0.00 0.00 0.00 44 1017.7
20260507222403 67 42 1.0 8.0 0.00 0.00 0.00 41 1017.8
20260507221902 68 268 2.0 6.0 0.00 0.00 0.00 44 1017.8
20260507221403 68 239 1.0 3.0 0.00 0.00 0.00 45 1017.8
20260507220902 67 30 0.0 5.0 0.00 0.00 0.00 48 1017.8
20260507220402 67 92 2.0 6.0 0.00 0.00 0.00 51 1017.9
20260507215902 67 35 2.0 6.0 0.00 0.00 0.00 50 1018.0
20260507215403 67 270 1.0 6.0 0.00 0.00 0.00 48 1018.1
20260507214903 66 23 1.0 8.0 0.00 0.00 0.00 51 1018.1
20260507214403 67 51 2.0 8.0 0.00 0.00 0.00 50 1018.2
20260507213902 67 96 1.0 5.0 0.00 0.00 0.00 49 1018.2
20260507213403 67 51 1.0 6.0 0.00 0.00 0.00 50 1018.3
20260507212905 67 50 1.0 6.0 0.00 0.00 0.00 50 1018.3
20260507212403 66 193 0.0 7.0 0.00 0.00 0.00 52 1018.4
20260507211903 66 176 1.0 7.0 0.00 0.00 0.00 49 1018.4
20260507211402 66 16 1.0 6.0 0.00 0.00 0.00 52 1018.4
20260507210402 65 171 3.0 7.0 0.00 0.00 0.00 42 1018.6
20260507205904 65 67 1.0 3.0 0.00 0.00 0.00 45 1018.7
20260507205403 65 186 1.0 3.0 0.00 0.00 0.00 46 1018.8
20260507204402 65 306 1.0 5.0 0.00 0.00 0.00 48 1018.9
20260507203903 65 227 0.0 3.0 0.00 0.00 0.00 49 1018.9
20260507202904 64 339 1.0 6.0 0.00 0.00 0.00 49 1019.0
20260507202403 64 226 2.0 5.0 0.00 0.00 0.00 50 1019.1
20260507201902 64 337 1.0 3.0 0.00 0.00 0.00 52 1019.2
20260507201402 64 309 1.0 5.0 0.00 0.00 0.00 53 1019.2
20260507200903 64 314 1.0 5.0 0.00 0.00 0.00 54 1019.2
20260507195902 64 202 2.0 6.0 0.00 0.00 0.00 55 1019.3
20260507195403 64 248 1.0 7.0 0.00 0.00 0.00 55 1019.4
20260507194903 63 239 2.0 7.0 0.00 0.00 0.00 56 1019.4
20260507193903 63 105 1.0 6.0 0.00 0.00 0.00 53 1019.5
20260507193403 63 302 0.0 6.0 0.00 0.00 0.00 57 1019.6
20260507192902 62 265 1.0 7.0 0.00 0.00 0.00 59 1019.6
20260507192402 62 197 3.0 7.0 0.00 0.00 0.00 63 1019.6
20260507191902 62 289 2.0 5.0 0.00 0.00 0.00 58 1019.7
20260507191402 62 247 1.0 5.0 0.00 0.00 0.00 57 1019.8
20260507190903 61 272 0.0 5.0 0.00 0.00 0.00 56 1019.8
20260507190402 62 314 1.0 3.0 0.00 0.00 0.00 53 1019.8
20260507185902 61 301 2.0 3.0 0.00 0.00 0.00 58 1019.9
20260507185403 62 282 1.0 3.0 0.00 0.00 0.00 54 1019.9
20260507184402 61 67 0.0 5.0 0.00 0.00 0.00 56 1020.0
20260507183902 61 274 1.0 5.0 0.00 0.00 0.00 61 1020.1
20260507183402 61 299 3.0 5.0 0.00 0.00 0.00 58 1020.2
20260507182903 61 219 1.0 6.0 0.00 0.00 0.00 60 1020.1
20260507182403 60 278 2.0 6.0 0.00 0.00 0.00 61 1020.2
20260507181903 60 215 1.0 3.0 0.00 0.00 0.00 61 1020.3
20260507181402 60 301 1.0 3.0 0.00 0.00 0.00 58 1020.4
20260507175902 60 118 2.0 5.0 0.00 0.00 0.00 62 1020.5
20260507174903 59 233 0.0 5.0 0.00 0.00 0.00 65 1020.5
20260507174402 59 280 1.0 5.0 0.00 0.00 0.00 63 1020.5
20260507173903 59 42 2.0 5.0 0.00 0.00 0.00 65 1020.6
20260507173404 58 62 0.0 2.0 0.00 0.00 0.00 64 1020.6
20260507172402 58 178 0.0 2.0 0.00 0.00 0.00 65 1020.7
20260507171903 58 225 0.0 3.0 0.00 0.00 0.00 68 1020.7
20260507171403 59 270 2.0 3.0 0.00 0.00 0.00 68 1020.7
20260507170403 57 322 1.0 5.0 0.00 0.00 0.00 68 1020.7
20260507165403 57 265 1.0 5.0 0.00 0.00 0.00 68 1020.7
20260507164903 57 240 1.0 5.0 0.00 0.00 0.00 72 1020.7
20260507164402 56 112 2.0 3.0 0.00 0.00 0.00 72 1020.7
20260507163903 55 44 1.0 3.0 0.00 0.00 0.00 73 1020.8
20260507163403 54 205 0.0 1.0 0.00 0.00 0.00 73 1020.8
20260507162403 53 251 0.0 5.0 0.00 0.00 0.00 75 1020.8
20260507161903 53 250 1.0 5.0 0.00 0.00 0.00 74 1020.7
20260507161404 53 250 0.0 0.0 0.00 0.00 0.00 76 1020.7
20260507160902 52 279 0.0 0.0 0.00 0.00 0.00 78 1020.8
20260507160403 52 195 0.0 0.0 0.00 0.00 0.00 78 1020.8
20260507155903 52 242 0.0 3.0 0.00 0.00 0.00 76 1020.7
20260507155402 52 21 0.0 3.0 0.00 0.00 0.00 79 1020.8
20260507154902 51 220 1.0 3.0 0.00 0.00 0.00 77 1020.8
20260507153902 51 277 0.0 2.0 0.00 0.00 0.00 78 1020.8
20260507153403 51 207 0.0 0.0 0.00 0.00 0.00 77 1020.9
20260507152903 51 247 0.0 0.0 0.00 0.00 0.00 79 1020.8
20260507152402 51 234 0.0 1.0 0.00 0.00 0.00 78 1020.8
20260507151903 51 221 0.0 2.0 0.00 0.00 0.00 79 1021.0
20260507151403 51 249 0.0 2.0 0.00 0.00 0.00 79 1020.9
20260507145902 51 292 0.0 2.0 0.00 0.00 0.00 79 1020.7
20260507144903 50 21 0.0 2.0 0.00 0.00 0.00 80 1020.8
20260507144403 50 253 1.0 2.0 0.00 0.00 0.00 79 1020.7
20260507143903 50 268 0.0 2.0 0.00 0.00 0.00 79 1020.7
20260507142902 50 224 0.0 3.0 0.00 0.00 0.00 79 1020.7
20260507142403 50 233 1.0 3.0 0.00 0.00 0.00 79 1020.7
20260507141902 50 269 0.0 2.0 0.00 0.00 0.00 79 1020.7
20260507141402 50 248 0.0 5.0 0.00 0.00 0.00 79 1020.7
20260507140902 50 261 0.0 5.0 0.00 0.00 0.00 80 1020.7
20260507140403 50 210 0.0 5.0 0.00 0.00 0.00 80 1020.6
20260507135902 50 273 0.0 2.0 0.00 0.00 0.00 79 1020.6
20260507135402 50 243 0.0 2.0 0.00 0.00 0.00 80 1020.5
20260507134902 50 248 0.0 0.0 0.00 0.00 0.00 81 1020.5
20260507133903 50 272 0.0 0.0 0.00 0.00 0.00 80 1020.4
20260507132902 50 271 0.0 0.0 0.00 0.00 0.00 80 1020.3
20260507132402 49 318 0.0 0.0 0.00 0.00 0.00 80 1020.4
20260507131403 49 236 0.0 0.0 0.00 0.00 0.00 80 1020.3
20260507130902 50 236 0.0 0.0 0.00 0.00 0.00 80 1020.4
20260507130402 50 201 0.0 0.0 0.00 0.00 0.00 81 1020.4
20260507125402 49 171 0.0 0.0 0.00 0.00 0.00 80 1020.4
20260507124903 49 221 0.0 0.0 0.00 0.00 0.00 81 1020.3
20260507124403 50 221 0.0 3.0 0.00 0.00 0.00 81 1020.3
20260507123903 50 223 0.0 6.0 0.00 0.00 0.00 80 1020.4
20260507123402 50 236 1.0 6.0 0.00 0.00 0.00 80 1020.4
20260507122902 50 245 0.0 0.0 0.00 0.00 0.00 81 1020.4
20260507122403 50 316 0.0 0.0 0.00 0.00 0.00 81 1020.4
20260507121903 50 292 0.0 0.0 0.00 0.00 0.00 80 1020.4
20260507121403 50 301 0.0 0.0 0.00 0.00 0.00 80 1020.4
20260507120902 50 301 0.0 1.0 0.00 0.00 0.00 80 1020.5
20260507120402 50 291 0.0 1.0 0.00 0.00 0.00 80 1020.4
20260507115902 50 269 0.0 1.0 0.00 0.00 0.00 80 1020.5
20260507115402 50 251 0.0 0.0 0.00 0.00 0.00 80 1020.5
20260507114903 50 277 0.0 0.0 0.00 0.00 0.00 80 1020.6
20260507114402 51 152 0.0 0.0 0.00 0.00 0.00 81 1020.6
20260507113903 51 123 0.0 0.0 0.00 0.00 0.00 80 1020.6
20260507113403 51 223 0.0 1.0 0.00 0.00 0.00 80 1020.6
20260507112902 51 226 0.0 3.0 0.00 0.00 0.00 80 1020.6
20260507112402 51 204 1.0 5.0 0.00 0.00 0.00 80 1020.6
20260507111904 51 257 0.0 6.0 0.00 0.00 0.00 80 1020.6
20260507111402 51 232 0.0 6.0 0.00 0.00 0.00 80 1020.5
20260507110902 51 257 1.0 6.0 0.00 0.00 0.00 80 1020.5
20260507110403 51 139 0.0 3.0 0.00 0.00 0.00 80 1020.6
20260507105902 51 322 0.0 3.0 0.00 0.00 0.00 80 1020.6
20260507105403 51 255 1.0 3.0 0.00 0.00 0.00 80 1020.6
20260507104902 51 248 1.0 5.0 0.00 0.00 0.00 80 1020.7
20260507104403 51 243 1.0 5.0 0.00 0.00 0.00 80 1020.7
20260507103402 52 244 0.0 2.0 0.00 0.00 0.00 81 1020.8
20260507102902 52 245 0.0 2.0 0.00 0.00 0.00 81 1020.7
20260507102403 52 230 1.0 2.0 0.00 0.00 0.00 80 1020.7
20260507101902 52 297 1.0 2.0 0.00 0.00 0.00 79 1020.8
20260507101403 52 310 1.0 2.0 0.00 0.00 0.00 80 1020.9
20260507100903 52 255 0.0 2.0 0.00 0.00 0.00 80 1020.9
20260507095902 52 339 0.0 0.0 0.00 0.00 0.00 81 1020.9
20260507094903 52 267 0.0 2.0 0.00 0.00 0.00 81 1021.0
20260507094402 52 147 1.0 2.0 0.00 0.00 0.00 80 1021.0
20260507093903 52 253 1.0 2.0 0.00 0.00 0.00 81 1021.0
20260507092902 53 250 0.0 3.0 0.00 0.00 0.00 81 1021.1
20260507092403 53 242 1.0 3.0 0.00 0.00 0.00 80 1021.1
20260507091903 53 262 1.0 3.0 0.00 0.00 0.00 82 1021.2
20260507091403 53 259 0.0 2.0 0.00 0.00 0.00 81 1021.2
20260507090904 53 254 0.0 3.0 0.00 0.00 0.00 82 1021.2
20260507090403 53 248 0.0 3.0 0.00 0.00 0.00 82 1021.2
20260507085402 53 250 0.0 2.0 0.00 0.00 0.00 82 1021.2
20260507084903 53 259 0.0 3.0 0.00 0.00 0.00 81 1021.1
20260507084403 53 307 1.0 3.0 0.00 0.00 0.00 81 1021.1
20260507083902 53 289 0.0 2.0 0.00 0.00 0.00 81 1021.1
20260507083403 53 222 0.0 2.0 0.00 0.00 0.00 81 1021.1
20260507082903 53 294 0.0 0.0 0.00 0.00 0.00 82 1021.2
20260507082402 53 328 0.0 2.0 0.00 0.00 0.00 81 1021.2
20260507081903 53 313 0.0 2.0 0.00 0.00 0.00 81 1021.2
20260507081402 53 290 1.0 2.0 0.00 0.00 0.00 81 1021.1
20260507080903 53 230 0.0 3.0 0.00 0.00 0.00 82 1021.1
20260507075903 53 262 1.0 2.0 0.00 0.00 0.00 81 1021.1
20260507075403 53 239 0.0 2.0 0.00 0.00 0.00 81 1021.1
20260507074902 53 172 1.0 2.0 0.00 0.00 0.00 81 1021.1
20260507074404 53 316 1.0 5.0 0.00 0.00 0.00 81 1021.2
20260507073902 53 262 1.0 5.0 0.00 0.00 0.00 81 1021.1
20260507073403 52 173 0.0 2.0 0.00 0.00 0.00 82 1021.1
20260507072403 52 283 0.0 3.0 0.00 0.00 0.00 83 1021.0
20260507071902 52 333 0.0 3.0 0.00 0.00 0.00 83 1021.0
20260507071402 52 241 0.0 2.0 0.00 0.00 0.00 83 1021.0
20260507070403 52 303 1.0 2.0 0.00 0.00 0.00 83 1021.0
20260507065902 51 220 0.0 2.0 0.00 0.00 0.00 83 1021.0
20260507065403 52 238 0.0 0.0 0.00 0.00 0.00 83 1021.0
20260507064903 52 238 0.0 0.0 0.00 0.00 0.00 83 1021.0
20260507064402 52 238 0.0 0.0 0.00 0.00 0.00 82 1021.0
20260507063902 52 238 0.0 2.0 0.00 0.00 0.00 82 1021.0
20260507063403 52 238 0.0 2.0 0.00 0.00 0.00 82 1020.9
20260507062903 52 228 0.0 2.0 0.00 0.00 0.00 82 1021.0
20260507061902 52 209 0.0 3.0 0.00 0.00 0.00 81 1021.0
20260507060902 53 273 0.0 2.0 0.00 0.00 0.00 80 1021.0